• In Hungary
  • List of Countries
  • For 7 days
  • Water Temperature
  • Satellite Maps
  • Weather Map
  • News
  • Weather Widgets
  • user-avatar
    Login

    Hourly Weather Demidovka

    Today, 22 August, Wednesday

    Time Temperature Precipitation Wind Pressure Humidity
    00:00 +11°C° 0 mm 4 mps 744 mmHg 84%
    01:00 +11°C° 0 mm 4 mps 744 mmHg 84%
    02:00 +10°C° 0 mm 4 mps 744 mmHg 85%
    03:00 +10°C° 0 mm 4 mps 745 mmHg 85%
    04:00 +10°C° 0 mm 4 mps 745 mmHg 85%
    05:00 +10°C° 0 mm 4 mps 745 mmHg 85%
    06:00 +10°C° 0 mm 5 mps 746 mmHg 79%
    07:00 +13°C° 0 mm 5 mps 746 mmHg 74%
    08:00 +14°C° 0 mm 5 mps 747 mmHg 68%
    09:00 +15°C° 0 mm 6 mps 747 mmHg 63%
    10:00 +16°C° 0 mm 6 mps 748 mmHg 58%
    11:00 +17°C° 0 mm 6 mps 748 mmHg 53%
    12:00 +19°C° 0 mm 6 mps 748 mmHg 51%
    13:00 +19°C° 0 mm 6 mps 749 mmHg 48%
    14:00 +19°C° 0 mm 6 mps 749 mmHg 46%
    15:00 +19°C° 0 mm 5 mps 749 mmHg 49%
    16:00 +17°C° 0 mm 5 mps 749 mmHg 51%
    17:00 +18°C° 0 mm 4 mps 750 mmHg 53%
    18:00 +16°C° 0 mm 3 mps 750 mmHg 59%
    19:00 +13°C° 0 mm 3 mps 751 mmHg 65%
    20:00 +12°C° 0 mm 2 mps 751 mmHg 72%
    21:00 +12°C° 0 mm 2 mps 752 mmHg 74%
    22:00 +10°C° 0 mm 2 mps 752 mmHg 77%
    23:00 +9°C° 0 mm 2 mps 752 mmHg 80%

    Tomorrow, 23 August, Thursday

    Time Temperature Precipitation Wind Pressure Humidity
    00:00 +9°C° 0 mm 2 mps 753 mmHg 82%
    01:00 +8°C° 0 mm 2 mps 753 mmHg 84%
    02:00 +8°C° 0 mm 2 mps 753 mmHg 85%
    03:00 +8°C° 0 mm 2 mps 754 mmHg 86%
    04:00 +8°C° 0 mm 2 mps 754 mmHg 86%
    05:00 +7°C° 0 mm 2 mps 754 mmHg 87%
    06:00 +10°C° 0 mm 2 mps 754 mmHg 79%
    07:00 +13°C° 0 mm 2 mps 754 mmHg 71%
    08:00 +15°C° 0 mm 2 mps 754 mmHg 63%
    09:00 +16°C° 0 mm 3 mps 754 mmHg 58%
    10:00 +18°C° 0 mm 3 mps 754 mmHg 52%
    11:00 +19°C° 0 mm 4 mps 754 mmHg 47%
    12:00 +20°C° 0 mm 4 mps 754 mmHg 46%
    13:00 +20°C° 0 mm 4 mps 753 mmHg 46%
    14:00 +21°C° 0 mm 4 mps 753 mmHg 45%
    15:00 +21°C° 0 mm 3 mps 753 mmHg 49%
    16:00 +20°C° 0 mm 3 mps 753 mmHg 52%
    17:00 +20°C° 0 mm 3 mps 753 mmHg 56%
    18:00 +18°C° 0 mm 3 mps 753 mmHg 63%
    19:00 +16°C° 0 mm 2 mps 753 mmHg 71%
    20:00 +14°C° 0 mm 2 mps 753 mmHg 78%
    21:00 +13°C° 0 mm 2 mps 753 mmHg 79%
    22:00 +13°C° 0 mm 2 mps 753 mmHg 81%
    23:00 +12°C° 0 mm 2 mps 753 mmHg 83%

    Day after tomorrow, 24 August, Friday

    Time Temperature Precipitation Wind Pressure Humidity
    00:00 +12°C° 0 mm 2 mps 753 mmHg 84%
    01:00 +12°C° 0 mm 2 mps 753 mmHg 86%
    02:00 +10°C° 0 mm 2 mps 753 mmHg 87%
    03:00 +10°C° 0 mm 2 mps 753 mmHg 88%
    04:00 +10°C° 0 mm 2 mps 753 mmHg 89%
    05:00 +10°C° 0 mm 2 mps 753 mmHg 89%
    06:00 +13°C° 0 mm 2 mps 753 mmHg 82%
    07:00 +15°C° 0 mm 2 mps 753 mmHg 74%
    08:00 +17°C° 0 mm 2 mps 753 mmHg 66%
    09:00 +19°C° 0 mm 2 mps 753 mmHg 60%
    10:00 +20°C° 0 mm 2 mps 753 mmHg 54%
    11:00 +22°C° 0 mm 3 mps 753 mmHg 48%
    12:00 +24°C° 0 mm 3 mps 753 mmHg 47%
    13:00 +24°C° 0 mm 3 mps 752 mmHg 45%
    14:00 +25°C° 0 mm 2 mps 752 mmHg 44%
    15:00 +24°C° 0 mm 2 mps 752 mmHg 48%
    16:00 +23°C° 0 mm 2 mps 752 mmHg 52%
    17:00 +23°C° 0 mm 2 mps 752 mmHg 57%
    18:00 +21°C° 0 mm 1 mps 752 mmHg 63%
    19:00 +19°C° 0 mm 1 mps 752 mmHg 69%
    20:00 +15°C° 0 mm 1 mps 752 mmHg 75%
    21:00 +15°C° 0 mm 1 mps 752 mmHg 77%
    22:00 +14°C° 0 mm 1 mps 752 mmHg 79%
    23:00 +14°C° 0 mm 2 mps 752 mmHg 81%

    25 August, Saturday

    Time Temperature Precipitation Wind Pressure Humidity
    00:00 +13°C° 0 mm 2 mps 752 mmHg 83%
    01:00 +13°C° 0 mm 2 mps 752 mmHg 84%
    02:00 +13°C° 0 mm 2 mps 752 mmHg 85%
    03:00 +12°C° 0 mm 2 mps 752 mmHg 86%
    04:00 +12°C° 0 mm 2 mps 752 mmHg 87%
    05:00 +12°C° 0 mm 2 mps 752 mmHg 87%
    06:00 +14°C° 0 mm 2 mps 752 mmHg 80%
    07:00 +16°C° 0 mm 2 mps 752 mmHg 72%
    08:00 +19°C° 0 mm 2 mps 752 mmHg 64%
    09:00 +20°C° 0 mm 3 mps 752 mmHg 58%
    10:00 +22°C° 0 mm 3 mps 752 mmHg 51%
    11:00 +25°C° 0 mm 4 mps 751 mmHg 45%
    12:00 +25°C° 0 mm 4 mps 751 mmHg 43%
    13:00 +26°C° 0 mm 4 mps 751 mmHg 42%
    14:00 +26°C° 0 mm 4 mps 751 mmHg 41%
    15:00 +26°C° 0 mm 3 mps 750 mmHg 45%
    16:00 +25°C° 0 mm 3 mps 750 mmHg 49%
    17:00 +24°C° 0 mm 2 mps 750 mmHg 53%
    18:00 +21°C° 0 mm 2 mps 750 mmHg 59%
    19:00 +19°C° 0 mm 2 mps 750 mmHg 64%
    20:00 +17°C° 0 mm 2 mps 750 mmHg 70%
    21:00 +16°C° 0 mm 2 mps 750 mmHg 72%
    22:00 +16°C° 0 mm 2 mps 750 mmHg 75%
    23:00 +15°C° 0 mm 2 mps 750 mmHg 77%

    26 August, Sunday

    Time Temperature Precipitation Wind Pressure Humidity
    00:00 +15°C° 0 mm 2 mps 750 mmHg 79%
    01:00 +14°C° 0 mm 2 mps 750 mmHg 81%
    02:00 +14°C° 0 mm 2 mps 750 mmHg 83%
    03:00 +14°C° 0 mm 2 mps 750 mmHg 84%
    04:00 +14°C° 0 mm 2 mps 750 mmHg 85%
    05:00 +13°C° 0 mm 2 mps 751 mmHg 85%
    06:00 +16°C° 0 mm 2 mps 751 mmHg 77%
    07:00 +18°C° 0 mm 2 mps 751 mmHg 69%
    08:00 +20°C° 0 mm 3 mps 751 mmHg 61%
    09:00 +22°C° 0 mm 3 mps 751 mmHg 55%
    10:00 +24°C° 0 mm 3 mps 751 mmHg 48%
    11:00 +26°C° 0 mm 4 mps 751 mmHg 41%
    12:00 +27°C° 0 mm 4 mps 751 mmHg 40%
    13:00 +27°C° 0 mm 3 mps 750 mmHg 39%
    14:00 +27°C° 0 mm 3 mps 750 mmHg 38%
    15:00 +27°C° 0 mm 3 mps 750 mmHg 42%
    16:00 +26°C° 0 mm 2 mps 750 mmHg 47%
    17:00 +25°C° 0 mm 2 mps 750 mmHg 51%
    18:00 +23°C° 0 mm 2 mps 750 mmHg 56%
    19:00 +20°C° 0 mm 2 mps 750 mmHg 60%
    20:00 +18°C° 0 mm 2 mps 750 mmHg 64%
    21:00 +17°C° 0 mm 2 mps 750 mmHg 65%
    22:00 +17°C° 0 mm 2 mps 750 mmHg 67%
    23:00 +16°C° 0 mm 2 mps 750 mmHg 68%

    27 August, Monday

    Time Temperature Precipitation Wind Pressure Humidity
    00:00 +16°C° 0 mm 2 mps 750 mmHg 70%
    01:00 +16°C° 0 mm 2 mps 751 mmHg 71%
    02:00 +15°C° 0 mm 2 mps 751 mmHg 73%
    03:00 +15°C° 0 mm 2 mps 751 mmHg 74%
    04:00 +15°C° 0 mm 2 mps 751 mmHg 75%
    05:00 +14°C° 0 mm 2 mps 751 mmHg 76%
    06:00 +17°C° 0 mm 2 mps 751 mmHg 70%
    07:00 +19°C° 0 mm 2 mps 751 mmHg 64%
    08:00 +21°C° 0 mm 3 mps 751 mmHg 57%
    09:00 +24°C° 0 mm 3 mps 751 mmHg 51%
    10:00 +26°C° 0 mm 3 mps 751 mmHg 45%
    11:00 +28°C° 0 mm 4 mps 751 mmHg 39%
    12:00 +28°C° 0 mm 4 mps 751 mmHg 38%
    13:00 +29°C° 0 mm 4 mps 751 mmHg 37%
    14:00 +29°C° 0 mm 4 mps 751 mmHg 36%
    15:00 +28°C° 0 mm 3 mps 751 mmHg 41%
    16:00 +27°C° 0 mm 2 mps 751 mmHg 46%
    17:00 +27°C° 0 mm 2 mps 750 mmHg 51%
    18:00 +25°C° 0 mm 2 mps 751 mmHg 55%
    19:00 +23°C° 0 mm 2 mps 751 mmHg 59%
    20:00 +20°C° 0 mm 2 mps 751 mmHg 64%
    21:00 +19°C° 0 mm 2 mps 751 mmHg 66%
    22:00 +19°C° 0 mm 2 mps 751 mmHg 68%
    23:00 +18°C° 0 mm 2 mps 751 mmHg 71%
    Show more